TimeEST,TemperatureF,Dew PointF,Humidity,Sea Level PressureIn,VisibilityMPH,Wind Direction,Wind SpeedMPH,Gust SpeedMPH,PrecipitationIn,Events,Conditions,WindDirDegrees,DateUTC
12:53 AM,8.1,3.9,83,30.32,1.2,Calm,Calm,-,0.00,Snow,Light Snow,0,2013-01-23 05:53:00
1:41 AM,6.8,3.2,85,30.25,2.0,Calm,Calm,-,0.00,Snow,Light Snow,0,2013-01-23 06:41:00
1:49 AM,6.8,3.2,85,30.25,2.0,NE,3.5,-,0.00,Snow,Light Snow,40,2013-01-23 06:49:00
1:53 AM,7.0,3.0,84,30.32,2.0,NE,4.6,-,0.00,Snow,Light Snow,50,2013-01-23 06:53:00
2:16 AM,6.8,1.4,79,30.25,3.0,ENE,4.6,-,0.00,Snow,Light Snow,60,2013-01-23 07:16:00
2:53 AM,6.1,1.9,83,30.32,9.0,East,3.5,-,0.00,,Overcast,80,2013-01-23 07:53:00
3:53 AM,6.1,1.9,83,30.32,5.0,East,3.5,-,0.00,Snow,Light Snow,80,2013-01-23 08:53:00
4:53 AM,6.1,1.0,80,30.31,7.0,ESE,3.5,-,0.00,,Overcast,120,2013-01-23 09:53:00
5:20 AM,6.8,1.4,79,30.24,2.5,SE,3.5,-,0.00,Snow,Light Snow,130,2013-01-23 10:20:00
5:35 AM,6.8,1.4,79,30.24,2.0,Variable,4.6,-,0.00,Snow,Light Snow,0,2013-01-23 10:35:00
5:53 AM,6.1,1.9,83,30.30,2.5,SE,4.6,-,0.00,Snow,Light Snow,140,2013-01-23 10:53:00
6:53 AM,6.1,1.9,83,30.29,2.5,SSE,4.6,-,0.00,Snow,Light Snow,160,2013-01-23 11:53:00
7:53 AM,8.1,3.9,83,30.28,1.8,South,6.9,-,0.00,Snow,Light Snow,190,2013-01-23 12:53:00
8:13 AM,8.6,3.2,79,30.21,1.2,SSW,8.1,-,0.00,Snow,Light Snow,210,2013-01-23 13:13:00
8:47 AM,8.6,3.2,79,30.21,2.0,SW,9.2,-,0.00,Snow,Light Snow,220,2013-01-23 13:47:00
8:53 AM,9.0,3.9,80,30.27,3.0,SW,10.4,-,0.00,,Haze,220,2013-01-23 13:53:00
9:11 AM,10.4,3.2,73,30.20,2.0,SW,11.5,-,0.00,Snow,Light Snow,220,2013-01-23 14:11:00
9:18 AM,10.4,3.2,73,30.20,1.5,SW,11.5,-,N/A,Snow,Light Snow,220,2013-01-23 14:18:00
9:53 AM,10.0,5.0,80,30.27,2.0,SSW,11.5,-,0.00,Snow,Light Snow,210,2013-01-23 14:53:00
9:56 AM,10.4,3.2,73,30.21,2.0,SW,13.8,-,0.00,Snow,Light Snow,220,2013-01-23 14:56:00
10:53 AM,12.0,3.9,70,30.27,3.0,SSW,17.3,-,0.00,,Haze,210,2013-01-23 15:53:00
11:53 AM,12.9,3.9,67,30.26,4.0,SSW,11.5,-,0.00,,Haze,210,2013-01-23 16:53:00
12:45 PM,14.0,6.8,73,30.16,2.5,SSW,12.7,-,0.00,Snow,Light Snow,210,2013-01-23 17:45:00
12:53 PM,14.0,6.1,71,30.22,2.5,WSW,12.7,-,0.00,Snow,Light Snow,240,2013-01-23 17:53:00
1:53 PM,15.1,7.0,70,30.17,2.5,SW,11.5,-,0.00,Snow,Light Snow,220,2013-01-23 18:53:00
2:53 PM,15.1,7.0,70,30.16,2.5,SW,13.8,-,0.00,Snow,Light Snow,220,2013-01-23 19:53:00
3:53 PM,15.1,8.1,74,30.14,2.5,SSW,11.5,-,0.00,Snow,Light Snow,210,2013-01-23 20:53:00
4:45 PM,15.8,6.8,68,30.07,4.0,SSW,12.7,-,0.00,,Haze,210,2013-01-23 21:45:00
4:53 PM,15.1,7.0,70,30.13,7.0,SSW,13.8,-,0.00,,Overcast,210,2013-01-23 21:53:00
5:35 PM,15.8,6.8,68,30.06,4.0,SSW,11.5,-,N/A,,Overcast,210,2013-01-23 22:35:00
5:53 PM,15.1,7.0,70,30.11,2.5,SW,11.5,-,0.00,Snow,Light Snow,220,2013-01-23 22:53:00
6:02 PM,15.8,6.8,68,30.05,3.0,SSW,10.4,-,0.00,Snow,Light Snow,210,2013-01-23 23:02:00
6:11 PM,15.8,8.6,73,30.05,2.5,SW,9.2,-,0.00,Snow,Light Snow,220,2013-01-23 23:11:00
6:27 PM,15.8,8.6,73,30.05,1.5,SW,10.4,-,0.00,Snow,Light Snow,220,2013-01-23 23:27:00
6:53 PM,15.1,10.0,80,30.11,1.0,SSW,9.2,-,0.00,Snow,Light Snow,210,2013-01-23 23:53:00
7:14 PM,15.8,10.4,79,30.04,0.8,SSW,10.4,-,0.00,Snow,Light Snow,210,2013-01-24 00:14:00
7:44 PM,15.8,12.2,86,30.04,0.5,SW,6.9,-,0.00,Fog-Snow,Snow,220,2013-01-24 00:44:00
7:53 PM,15.1,12.0,88,30.10,0.5,SW,9.2,-,0.01,Fog-Snow,Snow,220,2013-01-24 00:53:00
8:53 PM,16.0,12.9,88,30.10,0.8,WSW,6.9,-,0.00,Snow,Light Snow,240,2013-01-24 01:53:00
9:00 PM,15.8,12.2,86,30.04,0.8,West,5.8,-,0.00,Snow,Light Snow,260,2013-01-24 02:00:00
9:07 PM,15.8,12.2,86,30.04,0.5,WNW,4.6,-,0.01,Fog-Snow,Snow,290,2013-01-24 02:07:00
9:46 PM,17.6,14.0,86,30.06,0.8,NW,8.1,-,0.02,Snow,Snow,310,2013-01-24 02:46:00
9:53 PM,17.1,14.0,88,30.12,0.8,NNW,11.5,-,0.03,Snow,Snow,330,2013-01-24 02:53:00
10:27 PM,15.8,12.2,86,30.09,1.0,North,16.1,-,0.00,Snow,Light Snow,350,2013-01-24 03:27:00
10:53 PM,16.0,12.0,84,30.17,1.2,North,13.8,-,0.00,Snow,Light Snow,350,2013-01-24 03:53:00
11:10 PM,15.8,10.4,79,30.12,3.0,North,15.0,-,0.00,Snow,Light Snow,350,2013-01-24 04:10:00
11:18 PM,15.8,10.4,79,30.13,1.8,North,15.0,-,0.00,Snow,Light Snow,350,2013-01-24 04:18:00
11:27 PM,15.8,10.4,79,30.14,0.5,North,17.3,21.9,0.00,Fog-Snow,Snow,350,2013-01-24 04:27:00
11:41 PM,15.8,10.4,79,30.14,0.8,North,18.4,27.6,0.00,Snow,Light Snow,360,2013-01-24 04:41:00
11:43 PM,14.0,10.4,86,30.15,1.0,North,15.0,24.2,0.00,Snow,Light Snow,360,2013-01-24 04:43:00
11:48 PM,14.0,8.6,79,30.15,3.0,North,13.8,24.2,0.00,Snow,Light Snow,360,2013-01-24 04:48:00
11:53 PM,12.9,8.1,81,30.21,7.0,NNW,13.8,21.9,0.00,,Mostly Cloudy,340,2013-01-24 04:53:00